Hourly Data Report for September 15, 2004

SHERBROOKE A
QUEBEC

45°26'00.000" N
71°41'00.000" W
241.40 m
7028124
71610
YSC

Download Data

Hourly Data (September 2004)
Hourly Data Report for September 15, 2004
TIME
LST
Temp Definition
°C
Dew Point Definition
°C
Rel Hum Definition
%
Precip. Amount Definition
mm

Wind Dir Definition
10's deg

Wind Spd Definition
km/h
Visibility Definition
km
Stn Press Definition
kPa
Hmdx Definition


Wind Chill Definition


Weather Definition


00:00 10.4 8.7 89   13 4 15.0 99.62      
01:00 9.5 8.4 93   14 4 15.0 99.62      
02:00 8.9 8.1 95     0 15.0 99.59      
03:00 9.3 8.0 92   10 4 15.0 99.60      
04:00 8.8 7.9 94     0 15.0 99.61      
05:00 8.1 7.2 94   13 4 15.0 99.63      
06:00 9.2 8.4 95   14 4 15.0 99.67      
07:00 14.0 11.6 85     0 24.1 99.66     Mainly Clear
08:00 15.8 12.1 79     0 24.1 99.65     Mainly Clear
09:00 18.1 13.4 74   25 4 24.1 99.62     Mainly Clear
10:00 18.8 13.5 71   21 9 24.1 99.57     Mostly Cloudy
11:00 20.8 14.5 67   23 9 24.1 99.51     Mostly Cloudy
12:00 22.3 15.5 65   19 4 24.1 99.42 27   Mostly Cloudy
13:00 22.3 15.3 65   20 6 16.1 99.33 26   Mostly Cloudy
14:00 22.8 15.6 64   19 6 16.1 99.33 27   Mostly Cloudy
15:00 23.8 16.2 62   26 6 16.1 99.20 29   Mainly Clear
16:00 23.5 15.3 60   23 11 16.1 99.17 28   Mainly Clear
17:00 22.2 14.9 63   26 7 15.0 99.17 26    
18:00 20.2 15.1 72   23 6 15.0 99.16      
19:00 17.9 14.8 82   17 6 15.0 99.17      
20:00 17.3 13.9 80   20 4 15.0 99.19      
21:00 15.7 13.4 86     0 15.0 99.15      
22:00 13.2 12.5 96   13 4 8.0 99.13      
23:00 12.8 12.1 96     0 9.7 99.10      

Notes on Data Quality.

Legend

  • E = Estimated
  • M = Missing
  • NA = Not Available*
  • [empty] = Indicates an unobserved value
Date modified: